Location: *
(49.0044°N, 9.5056°E)
Time: 22:58:55
(UTC+00:00)

Cosmos 2082 Rocket - Pass Details

Date: 22 September 2019
Orbit: 831 x 855 km, 71.0° (Epoch: 17 October)

Event Time Altitude Azimuth Distance (km) Brightness Sun altitude
Rises 21:29:32 0° 334° (NNW) 3,436 6.4 -35.9°
Reaches altitude 10° 21:33:01 10° 356° (N) 2,498 5.3 -36.2°
Enters shadow 21:36:18 16° 31° (NNE) 2,077 4.4 -36.5°
